| time (UTC) | temp C | wind direction | speed KPH | gust KPH | rain 1hr cm | rain 24hr cm | rain mn cm | humidity % | barometer mb |
| 20260906061816 | 15 | 172 | 0.0 | 4.8 | 0.00 | 0.00 | 0.00 | 81 | 1017.1 |
| 20260906061312 | 15 | 341 | 3.2 | 8.0 | 0.00 | 0.00 | 0.00 | 79 | 1017.2 |
| 20260906060807 | 15 | 319 | 0.0 | 4.8 | 0.00 | 0.00 | 0.00 | 78 | 1017.1 |
| 20260906060305 | 15 | 90 | 0.0 | 3.2 | 0.00 | 0.00 | 0.00 | 79 | 1017.5 |
| 20260906055800 | 15 | 16 | 0.0 | 3.2 | 0.00 | 0.00 | 0.00 | 79 | 1017.1 |
| 20260906055255 | 15 | 90 | 3.2 | 6.4 | 0.00 | 0.00 | 0.00 | 78 | 1017.2 |
| 20260906054750 | 15 | 73 | 3.2 | 8.0 | 0.00 | 0.00 | 0.00 | 77 | 1017.4 |
| 20260906054246 | 15 | 69 | 0.0 | 4.8 | 0.00 | 0.00 | 0.00 | 78 | 1017.2 |
| 20260906053743 | 15 | 45 | 3.2 | 4.8 | 0.00 | 0.00 | 0.00 | 78 | 1017.7 |
| 20260906053238 | 15 | 180 | 0.0 | 3.2 | 0.00 | 0.00 | 0.00 | 80 | 1017.7 |
| 20260906052733 | 15 | 162 | 0.0 | 3.2 | 0.00 | 0.00 | 0.00 | 79 | 1017.4 |
| 20260906052229 | 15 | 166 | 1.6 | 1.6 | 0.00 | 0.00 | 0.00 | 80 | 1017.6 |
| 20260906051726 | 15 | 96 | 0.0 | 4.8 | 0.00 | 0.00 | 0.00 | 79 | 1017.5 |
| 20260906051225 | 15 | 154 | 1.6 | 4.8 | 0.00 | 0.00 | 0.00 | 81 | 1017.2 |
| 20260906050721 | 15 | 29 | 0.0 | 1.6 | 0.00 | 0.00 | 0.00 | 81 | 1017.4 |
| 20260906050216 | 15 | 84 | 1.6 | 4.8 | 0.00 | 0.00 | 0.00 | 82 | 1017.4 |
| 20260906045714 | 15 | 168 | 1.6 | 3.2 | 0.00 | 0.00 | 0.00 | 81 | 1017.4 |
| 20260906045210 | 15 | 154 | 1.6 | 4.8 | 0.00 | 0.00 | 0.00 | 80 | 1017.2 |
| 20260906044706 | 15 | 8 | 0.0 | 3.2 | 0.00 | 0.00 | 0.00 | 78 | 1017.2 |
| 20260906044200 | 16 | 16 | 3.2 | 3.2 | 0.00 | 0.00 | 0.00 | 75 | 1017.4 |
| 20260906043656 | 16 | 111 | 1.6 | 4.8 | 0.00 | 0.00 | 0.00 | 74 | 1017.6 |
| 20260906043152 | 16 | 141 | 4.8 | 9.7 | 0.00 | 0.00 | 0.00 | 75 | 1017.4 |
| 20260906042651 | 16 | 119 | 3.2 | 8.0 | 0.00 | 0.00 | 0.00 | 74 | 1017.4 |
| 20260906042145 | 16 | 127 | 4.8 | 8.0 | 0.00 | 0.00 | 0.00 | 75 | 1017.6 |
| 20260906041641 | 16 | 119 | 3.2 | 6.4 | 0.00 | 0.00 | 0.00 | 76 | 1017.6 |
| 20260906041136 | 16 | 97 | 1.6 | 9.7 | 0.00 | 0.00 | 0.00 | 76 | 1017.9 |
| 20260906040631 | 15 | 72 | 4.8 | 8.0 | 0.00 | 0.00 | 0.00 | 76 | 1017.8 |
| 20260906040127 | 15 | 135 | 3.2 | 6.4 | 0.00 | 0.00 | 0.00 | 76 | 1017.2 |
| 20260906035622 | 15 | 139 | 3.2 | 6.4 | 0.00 | 0.00 | 0.00 | 76 | 1017.7 |
| 20260906035118 | 15 | 148 | 3.2 | 8.0 | 0.00 | 0.00 | 0.00 | 75 | 1017.6 |
| 20260906034618 | 16 | 120 | 1.6 | 3.2 | 0.00 | 0.00 | 0.00 | 75 | 1017.4 |
| 20260906034112 | 16 | 148 | 3.2 | 4.8 | 0.00 | 0.00 | 0.00 | 74 | 1017.6 |
| 20260906033608 | 16 | 106 | 0.0 | 1.6 | 0.00 | 0.00 | 0.00 | 75 | 1017.5 |
| 20260906033103 | 16 | 105 | 3.2 | 4.8 | 0.00 | 0.00 | 0.00 | 74 | 1017.6 |
| 20260906032559 | 16 | 120 | 0.0 | 0.0 | 0.00 | 0.00 | 0.00 | 71 | 1017.2 |
| 20260906032054 | 17 | 188 | 0.0 | 0.0 | 0.00 | 0.00 | 0.00 | 69 | 1017.5 |
| 20260906031549 | 17 | 120 | 0.0 | 3.2 | 0.00 | 0.00 | 0.00 | 68 | 1017.1 |
| 20260906031045 | 17 | 83 | 1.6 | 3.2 | 0.00 | 0.00 | 0.00 | 68 | 1017.1 |
| 20260906030544 | 17 | 288 | 3.2 | 4.8 | 0.00 | 0.00 | 0.00 | 66 | 1016.9 |
| 20260906030043 | 17 | 249 | 4.8 | 4.8 | 0.00 | 0.00 | 0.00 | 67 | 1017.1 |
| 20260906025538 | 17 | 0 | 1.6 | 4.8 | 0.00 | 0.00 | 0.00 | 67 | 1016.8 |
| 20260906025036 | 17 | 122 | 8.0 | 12.9 | 0.00 | 0.00 | 0.00 | 67 | 1016.8 |
| 20260906024532 | 18 | 90 | 3.2 | 17.7 | 0.00 | 0.00 | 0.00 | 66 | 1016.6 |
| 20260906024032 | 18 | 129 | 4.8 | 19.3 | 0.00 | 0.00 | 0.00 | 65 | 1016.7 |
| 20260906023528 | 18 | 203 | 0.0 | 9.7 | 0.00 | 0.00 | 0.00 | 64 | 1016.6 |
| 20260906023022 | 18 | 79 | 3.2 | 11.3 | 0.00 | 0.00 | 0.00 | 63 | 1016.4 |
| 20260906022518 | 18 | 29 | 0.0 | 4.8 | 0.00 | 0.00 | 0.00 | 63 | 1016.6 |
| 20260906022013 | 18 | 160 | 1.6 | 3.2 | 0.00 | 0.00 | 0.00 | 63 | 1016.6 |
| 20260906021508 | 18 | 90 | 3.2 | 8.0 | 0.00 | 0.00 | 0.00 | 63 | 1016.1 |
| 20260906021002 | 18 | 97 | 4.8 | 14.5 | 0.00 | 0.00 | 0.00 | 63 | 1016.4 |
| 20260906020456 | 18 | 105 | 3.2 | 8.0 | 0.00 | 0.00 | 0.00 | 63 | 1016.7 |
| 20260906015955 | 18 | 194 | 1.6 | 12.9 | 0.00 | 0.00 | 0.00 | 63 | 1016.4 |
| 20260906015455 | 18 | 90 | 0.0 | 8.0 | 0.00 | 0.00 | 0.00 | 64 | 1016.4 |
| 20260906014950 | 19 | 114 | 4.8 | 8.0 | 0.00 | 0.00 | 0.00 | 63 | 1016.4 |
| 20260906014449 | 19 | 103 | 0.0 | 11.3 | 0.00 | 0.00 | 0.00 | 63 | 1015.9 |
| 20260906013946 | 19 | 67 | 4.8 | 17.7 | 0.00 | 0.00 | 0.00 | 63 | 1015.8 |
| 20260906013441 | 20 | 54 | 0.0 | 4.8 | 0.00 | 0.00 | 0.00 | 62 | 1015.8 |
| 20260906012937 | 20 | 98 | 0.0 | 19.3 | 0.00 | 0.00 | 0.00 | 61 | 1015.7 |
| 20260906012431 | 20 | 102 | 4.8 | 11.3 | 0.00 | 0.00 | 0.00 | 59 | 1015.7 |
| 20260906011930 | 20 | 102 | 8.0 | 9.7 | 0.00 | 0.00 | 0.00 | 57 | 1015.7 |
| 20260906011426 | 21 | 168 | 0.0 | 1.6 | 0.00 | 0.00 | 0.00 | 55 | 1016.0 |
| 20260906010921 | 21 | 203 | 0.0 | 3.2 | 0.00 | 0.00 | 0.00 | 53 | 1015.8 |
| 20260906010417 | 21 | 115 | 0.0 | 6.4 | 0.00 | 0.00 | 0.00 | 51 | 1015.7 |
| 20260906005913 | 21 | 0 | 1.6 | 6.4 | 0.00 | 0.00 | 0.00 | 49 | 1015.7 |
| 20260906005412 | 21 | 90 | 0.0 | 6.4 | 0.00 | 0.00 | 0.00 | 50 | 1015.8 |
| 20260906004910 | 21 | 259 | 0.0 | 9.7 | 0.00 | 0.00 | 0.00 | 50 | 1015.6 |
| 20260906004405 | 21 | 261 | 6.4 | 8.0 | 0.00 | 0.00 | 0.00 | 49 | 1015.5 |
| 20260906003901 | 22 | 343 | 6.4 | 9.7 | 0.00 | 0.00 | 0.00 | 49 | 1015.7 |
| 20260906003356 | 22 | 270 | 3.2 | 9.7 | 0.00 | 0.00 | 0.00 | 49 | 1015.8 |
| 20260906002851 | 22 | 264 | 3.2 | 11.3 | 0.00 | 0.00 | 0.00 | 49 | 1015.8 |
| 20260906002350 | 22 | 263 | 6.4 | 11.3 | 0.00 | 0.00 | 0.00 | 49 | 1015.5 |
| 20260906001846 | 22 | 254 | 6.4 | 11.3 | 0.00 | 0.00 | 0.00 | 47 | 1015.5 |
| 20260906001342 | 22 | 279 | 8.0 | 14.5 | 0.00 | 0.00 | 0.00 | 47 | 1015.5 |
| 20260906000836 | 23 | 240 | 3.2 | 14.5 | 0.00 | 0.00 | 0.00 | 47 | 1015.5 |
| 20260906000333 | 23 | 251 | 4.8 | 14.5 | 0.00 | 0.00 | 0.00 | 46 | 1015.4 |
| 20260905235831 | 23 | 279 | 6.4 | 8.0 | 0.00 | 0.00 | 0.00 | 48 | 1015.1 |
| 20260905235326 | 23 | 231 | 8.0 | 12.9 | 0.00 | 0.00 | 0.00 | 46 | 1015.2 |
| 20260905234821 | 23 | 36 | 3.2 | 6.4 | 0.00 | 0.00 | 0.00 | 45 | 1015.4 |
| 20260905234316 | 23 | 266 | 4.8 | 11.3 | 0.00 | 0.00 | 0.00 | 46 | 1015.2 |
| 20260905233811 | 23 | 270 | 4.8 | 14.5 | 0.00 | 0.00 | 0.00 | 46 | 1015.4 |
| 20260905233306 | 24 | 345 | 1.6 | 6.4 | 0.00 | 0.00 | 0.00 | 45 | 1015.1 |
| 20260905232805 | 23 | 292 | 4.8 | 9.7 | 0.00 | 0.00 | 0.00 | 45 | 1015.4 |
| 20260905232305 | 23 | 340 | 4.8 | 4.8 | 0.00 | 0.00 | 0.00 | 45 | 1015.1 |
| 20260905231757 | 23 | 35 | 0.0 | 8.0 | 0.00 | 0.00 | 0.00 | 48 | 1015.4 |
| 20260905231252 | 23 | 6 | 1.6 | 9.7 | 0.00 | 0.00 | 0.00 | 48 | 1015.2 |
| 20260905230748 | 23 | 3 | 4.8 | 6.4 | 0.00 | 0.00 | 0.00 | 47 | 1015.4 |
| 20260905230246 | 23 | 305 | 4.8 | 6.4 | 0.00 | 0.00 | 0.00 | 47 | 1015.5 |
| 20260905225745 | 23 | 29 | 0.0 | 6.4 | 0.00 | 0.00 | 0.00 | 47 | 1015.6 |
| 20260905225241 | 23 | 0 | 1.6 | 8.0 | 0.00 | 0.00 | 0.00 | 47 | 1015.7 |
| 20260905224739 | 23 | 29 | 4.8 | 8.0 | 0.00 | 0.00 | 0.00 | 48 | 1016.0 |
| 20260905224236 | 23 | 331 | 1.6 | 6.4 | 0.00 | 0.00 | 0.00 | 48 | 1015.6 |
| 20260905223731 | 23 | 317 | 6.4 | 6.4 | 0.00 | 0.00 | 0.00 | 48 | 1015.7 |
| 20260905223228 | 22 | 253 | 8.0 | 12.9 | 0.00 | 0.00 | 0.00 | 49 | 1016.0 |
| 20260905222724 | 23 | 296 | 4.8 | 9.7 | 0.00 | 0.00 | 0.00 | 47 | 1015.9 |
| 20260905222223 | 23 | 114 | 0.0 | 6.4 | 0.00 | 0.00 | 0.00 | 47 | 1015.9 |
| 20260905221719 | 23 | 54 | 4.8 | 8.0 | 0.00 | 0.00 | 0.00 | 49 | 1016.1 |
| 20260905221215 | 22 | 6 | 1.6 | 6.4 | 0.00 | 0.00 | 0.00 | 49 | 1016.4 |
| 20260905220711 | 22 | 114 | 1.6 | 6.4 | 0.00 | 0.00 | 0.00 | 48 | 1016.2 |
| 20260905220207 | 22 | 282 | 4.8 | 8.0 | 0.00 | 0.00 | 0.00 | 50 | 1016.2 |
| 20260905215706 | 22 | 260 | 6.4 | 14.5 | 0.00 | 0.00 | 0.00 | 51 | 1016.4 |
| 20260905215202 | 21 | 301 | 3.2 | 8.0 | 0.00 | 0.00 | 0.00 | 50 | 1016.5 |
| 20260905214658 | 21 | 15 | 0.0 | 8.0 | 0.00 | 0.00 | 0.00 | 50 | 1016.5 |
| 20260905214153 | 22 | 118 | 8.0 | 8.0 | 0.00 | 0.00 | 0.00 | 51 | 1016.8 |
| 20260905213648 | 22 | 195 | 1.6 | 6.4 | 0.00 | 0.00 | 0.00 | 50 | 1016.8 |
| 20260905213144 | 22 | 109 | 0.0 | 4.8 | 0.00 | 0.00 | 0.00 | 51 | 1016.8 |
| 20260905212639 | 21 | 298 | 4.8 | 11.3 | 0.00 | 0.00 | 0.00 | 52 | 1016.8 |
| 20260905212138 | 21 | 327 | 4.8 | 8.0 | 0.00 | 0.00 | 0.00 | 51 | 1017.1 |
| 20260905211633 | 21 | 262 | 9.7 | 11.3 | 0.00 | 0.00 | 0.00 | 52 | 1016.9 |
| 20260905211128 | 22 | 11 | 0.0 | 3.2 | 0.00 | 0.00 | 0.00 | 51 | 1017.0 |
| 20260905210625 | 21 | 287 | 3.2 | 4.8 | 0.00 | 0.00 | 0.00 | 53 | 1017.2 |
| 20260905210119 | 21 | 282 | 4.8 | 6.4 | 0.00 | 0.00 | 0.00 | 53 | 1017.1 |
| 20260905205619 | 21 | 121 | 4.8 | 9.7 | 0.00 | 0.00 | 0.00 | 55 | 1017.2 |
| 20260905205118 | 21 | 307 | 3.2 | 8.0 | 0.00 | 0.00 | 0.00 | 53 | 1017.4 |
| 20260905204618 | 21 | 322 | 4.8 | 8.0 | 0.00 | 0.00 | 0.00 | 52 | 1017.6 |
| 20260905204114 | 20 | 7 | 6.4 | 6.4 | 0.00 | 0.00 | 0.00 | 55 | 1017.7 |
| 20260905203613 | 20 | 266 | 0.0 | 8.0 | 0.00 | 0.00 | 0.00 | 56 | 1017.6 |
| 20260905203109 | 20 | 236 | 3.2 | 8.0 | 0.00 | 0.00 | 0.00 | 56 | 1017.7 |
| 20260905202604 | 20 | 291 | 6.4 | 9.7 | 0.00 | 0.00 | 0.00 | 57 | 1017.7 |
| 20260905202059 | 20 | 315 | 3.2 | 6.4 | 0.00 | 0.00 | 0.00 | 56 | 1017.7 |
| 20260905201555 | 20 | 357 | 4.8 | 14.5 | 0.00 | 0.00 | 0.00 | 59 | 1017.7 |
| 20260905201054 | 20 | 105 | 4.8 | 6.4 | 0.00 | 0.00 | 0.00 | 60 | 1017.8 |
| 20260905200550 | 20 | 353 | 1.6 | 8.0 | 0.00 | 0.00 | 0.00 | 61 | 1017.9 |
| 20260905200050 | 18 | 257 | 3.2 | 6.4 | 0.00 | 0.00 | 0.00 | 60 | 1017.9 |
| 20260905195544 | 18 | 297 | 1.6 | 4.8 | 0.00 | 0.00 | 0.00 | 60 | 1018.2 |
| 20260905195040 | 18 | 304 | 3.2 | 3.2 | 0.00 | 0.00 | 0.00 | 61 | 1018.2 |
| 20260905194539 | 18 | 66 | 3.2 | 4.8 | 0.00 | 0.00 | 0.00 | 64 | 1018.1 |
| 20260905194038 | 18 | 90 | 1.6 | 4.8 | 0.00 | 0.00 | 0.00 | 62 | 1018.0 |
| 20260905193533 | 18 | 169 | 0.0 | 6.4 | 0.00 | 0.00 | 0.00 | 62 | 1017.8 |
| 20260905193029 | 18 | 279 | 0.0 | 3.2 | 0.00 | 0.00 | 0.00 | 64 | 1018.0 |
| 20260905192524 | 18 | 6 | 1.6 | 4.8 | 0.00 | 0.00 | 0.00 | 66 | 1018.0 |
| 20260905192020 | 18 | 255 | 0.0 | 4.8 | 0.00 | 0.00 | 0.00 | 65 | 1018.2 |
| 20260905191519 | 18 | 0 | 0.0 | 4.8 | 0.00 | 0.00 | 0.00 | 66 | 1018.1 |
| 20260905191018 | 17 | 12 | 3.2 | 4.8 | 0.00 | 0.00 | 0.00 | 68 | 1018.2 |
| 20260905190516 | 17 | 332 | 3.2 | 4.8 | 0.00 | 0.00 | 0.00 | 67 | 1018.2 |
| 20260905190010 | 17 | 263 | 4.8 | 6.4 | 0.00 | 0.00 | 0.00 | 66 | 1018.1 |
| 20260905185504 | 17 | 267 | 6.4 | 8.0 | 0.00 | 0.00 | 0.00 | 67 | 1018.1 |
| 20260905185003 | 17 | 291 | 1.6 | 4.8 | 0.00 | 0.00 | 0.00 | 70 | 1018.5 |
| 20260905184459 | 17 | 300 | 4.8 | 8.0 | 0.00 | 0.00 | 0.00 | 69 | 1018.7 |
| 20260905183957 | 16 | 241 | 3.2 | 8.0 | 0.00 | 0.00 | 0.00 | 70 | 1018.5 |
| 20260905183457 | 16 | 248 | 3.2 | 9.7 | 0.00 | 0.00 | 0.00 | 73 | 1018.7 |
| 20260905182951 | 16 | 273 | 6.4 | 8.0 | 0.00 | 0.00 | 0.00 | 73 | 1018.7 |
| 20260905182451 | 17 | 275 | 3.2 | 6.4 | 0.00 | 0.00 | 0.00 | 72 | 1018.8 |
| 20260905181946 | 16 | 209 | 3.2 | 6.4 | 0.00 | 0.00 | 0.00 | 74 | 1018.9 |
| 20260905181441 | 16 | 189 | 4.8 | 4.8 | 0.00 | 0.00 | 0.00 | 74 | 1018.9 |
| 20260905180940 | 16 | 331 | 1.6 | 4.8 | 0.00 | 0.00 | 0.00 | 76 | 1018.9 |
| 20260905180435 | 15 | 264 | 1.6 | 4.8 | 0.00 | 0.00 | 0.00 | 77 | 1019.0 |
| 20260905175930 | 15 | 280 | 3.2 | 4.8 | 0.00 | 0.00 | 0.00 | 75 | 1019.1 |
| 20260905175429 | 15 | 251 | 4.8 | 8.0 | 0.00 | 0.00 | 0.00 | 76 | 1019.3 |
| 20260905174925 | 15 | 211 | 4.8 | 8.0 | 0.00 | 0.00 | 0.00 | 77 | 1019.1 |
| 20260905174421 | 15 | 278 | 3.2 | 8.0 | 0.00 | 0.00 | 0.00 | 76 | 1019.1 |
| 20260905173916 | 15 | 289 | 1.6 | 8.0 | 0.00 | 0.00 | 0.00 | 78 | 1019.1 |
| 20260905173412 | 15 | 255 | 4.8 | 9.7 | 0.00 | 0.00 | 0.00 | 77 | 1019.1 |
| 20260905172907 | 15 | 245 | 3.2 | 11.3 | 0.00 | 0.00 | 0.00 | 79 | 1019.5 |
| 20260905172404 | 15 | 326 | 8.0 | 8.0 | 0.00 | 0.00 | 0.00 | 79 | 1019.0 |
| 20260905171901 | 14 | 336 | 3.2 | 8.0 | 0.00 | 0.00 | 0.00 | 80 | 1019.3 |
| 20260905171357 | 14 | 83 | 0.0 | 8.0 | 0.00 | 0.00 | 0.00 | 81 | 1019.6 |
| 20260905170854 | 13 | 206 | 4.8 | 4.8 | 0.00 | 0.00 | 0.00 | 81 | 1019.2 |
| 20260905170349 | 13 | 322 | 9.7 | 9.7 | 0.00 | 0.00 | 0.00 | 82 | 1019.2 |
| 20260905165848 | 13 | 328 | 3.2 | 6.4 | 0.00 | 0.00 | 0.00 | 82 | 1019.7 |
| 20260905165343 | 13 | 354 | 1.6 | 6.4 | 0.00 | 0.00 | 0.00 | 83 | 1019.3 |
| 20260905164838 | 12 | 306 | 1.6 | 3.2 | 0.00 | 0.00 | 0.00 | 84 | 1019.3 |
| 20260905164333 | 12 | 277 | 1.6 | 3.2 | 0.00 | 0.00 | 0.00 | 85 | 1019.6 |
| 20260905163829 | 12 | 180 | 3.2 | 4.8 | 0.00 | 0.00 | 0.00 | 85 | 1019.5 |
| 20260905163325 | 12 | 286 | 1.6 | 8.0 | 0.00 | 0.00 | 0.00 | 85 | 1019.7 |
| 20260905162821 | 13 | 304 | 3.2 | 3.2 | 0.00 | 0.00 | 0.00 | 86 | 1019.6 |
| 20260905162320 | 12 | 299 | 4.8 | 6.4 | 0.00 | 0.00 | 0.00 | 85 | 1019.6 |
| 20260905161815 | 12 | 328 | 4.8 | 8.0 | 0.00 | 0.00 | 0.00 | 86 | 1019.7 |
| 20260905161314 | 12 | 246 | 3.2 | 4.8 | 0.00 | 0.00 | 0.00 | 88 | 1019.6 |
| 20260905160812 | 11 | 246 | 0.0 | 3.2 | 0.00 | 0.00 | 0.00 | 90 | 1019.5 |
| 20260905160307 | 11 | 262 | 0.0 | 3.2 | 0.00 | 0.00 | 0.00 | 90 | 1019.8 |
| 20260905155802 | 11 | 172 | 0.0 | 4.8 | 0.00 | 0.00 | 0.00 | 91 | 1019.6 |
| 20260905155301 | 11 | 253 | 4.8 | 4.8 | 0.00 | 0.00 | 0.00 | 91 | 1019.5 |
| 20260905154755 | 11 | 297 | 0.0 | 1.6 | 0.00 | 0.00 | 0.00 | 92 | 1019.7 |
| 20260905154251 | 10 | 24 | 3.2 | 4.8 | 0.00 | 0.00 | 0.00 | 92 | 1019.6 |
| 20260905153746 | 10 | 294 | 0.0 | 4.8 | 0.00 | 0.00 | 0.00 | 93 | 1019.6 |
| 20260905153242 | 10 | 45 | 3.2 | 4.8 | 0.00 | 0.00 | 0.00 | 94 | 1019.5 |
| 20260905152736 | 10 | 0 | 1.6 | 4.8 | 0.00 | 0.00 | 0.00 | 94 | 1019.7 |
| 20260905152231 | 10 | 311 | 0.0 | 3.2 | 0.00 | 0.00 | 0.00 | 95 | 1019.6 |
| 20260905151731 | 10 | 254 | 0.0 | 3.2 | 0.00 | 0.00 | 0.00 | 95 | 1019.8 |
| 20260905151227 | 10 | 36 | 4.8 | 4.8 | 0.00 | 0.00 | 0.00 | 95 | 1019.5 |
| 20260905150726 | 10 | 331 | 0.0 | 3.2 | 0.00 | 0.00 | 0.00 | 95 | 1019.5 |
| 20260905150226 | 10 | 11 | 0.0 | 4.8 | 0.00 | 0.00 | 0.00 | 95 | 1019.3 |
| 20260905145724 | 10 | 258 | 1.6 | 4.8 | 0.00 | 0.00 | 0.00 | 95 | 1019.1 |
| 20260905145219 | 10 | 14 | 0.0 | 3.2 | 0.00 | 0.00 | 0.00 | 95 | 1019.7 |
| 20260905144717 | 10 | 188 | 0.0 | 1.6 | 0.00 | 0.00 | 0.00 | 95 | 1019.5 |
| 20260905144212 | 10 | 294 | 0.0 | 3.2 | 0.00 | 0.00 | 0.00 | 94 | 1019.5 |
| 20260905143711 | 10 | 21 | 3.2 | 4.8 | 0.00 | 0.00 | 0.00 | 94 | 1019.6 |
| 20260905143206 | 10 | 240 | 0.0 | 3.2 | 0.00 | 0.00 | 0.00 | 94 | 1019.3 |
| 20260905142704 | 10 | 294 | 1.6 | 4.8 | 0.00 | 0.00 | 0.00 | 94 | 1019.0 |
| 20260905142159 | 10 | 12 | 0.0 | 3.2 | 0.00 | 0.00 | 0.00 | 94 | 1019.3 |
| 20260905141654 | 10 | 248 | 0.0 | 3.2 | 0.00 | 0.00 | 0.00 | 94 | 1019.1 |
| 20260905141150 | 10 | 259 | 8.0 | 8.0 | 0.00 | 0.00 | 0.00 | 94 | 1019.5 |
| 20260905140645 | 10 | 239 | 3.2 | 3.2 | 0.00 | 0.00 | 0.00 | 94 | 1019.0 |
| 20260905140145 | 10 | 225 | 4.8 | 4.8 | 0.00 | 0.00 | 0.00 | 93 | 1018.9 |
| 20260905135640 | 11 | 0 | 4.8 | 4.8 | 0.00 | 0.00 | 0.00 | 92 | 1018.9 |
| 20260905135135 | 10 | 49 | 3.2 | 6.4 | 0.00 | 0.00 | 0.00 | 92 | 1018.1 |
| 20260905134624 | 10 | 98 | 4.8 | 6.4 | 0.00 | 0.00 | 0.00 | 92 | 1018.7 |
| 20260905134123 | 10 | 330 | 4.8 | 4.8 | 0.00 | 0.00 | 0.00 | 94 | 1019.3 |
| 20260905133619 | 10 | 57 | 1.6 | 6.4 | 0.00 | 0.00 | 0.00 | 95 | 1018.7 |
| 20260905133119 | 10 | 14 | 0.0 | 1.6 | 0.00 | 0.00 | 0.00 | 95 | 1018.9 |
| 20260905132618 | 10 | 98 | 0.0 | 1.6 | 0.00 | 0.00 | 0.00 | 95 | 1018.5 |
| 20260905132113 | 10 | 90 | 0.0 | 3.2 | 0.00 | 0.00 | 0.00 | 95 | 1018.5 |
| 20260905131608 | 10 | 127 | 4.8 | 6.4 | 0.00 | 0.00 | 0.00 | 95 | 1018.1 |
| 20260905131103 | 10 | 45 | 3.2 | 4.8 | 0.00 | 0.00 | 0.00 | 94 | 1018.2 |
| 20260905130603 | 10 | 45 | 3.2 | 4.8 | 0.00 | 0.00 | 0.00 | 94 | 1018.3 |
| 20260905130058 | 10 | 14 | 3.2 | 6.4 | 0.00 | 0.00 | 0.00 | 93 | 1018.3 |
| 20260905125557 | 10 | 204 | 0.0 | 3.2 | 0.00 | 0.00 | 0.00 | 94 | 1018.3 |
| 20260905125053 | 10 | 219 | 3.2 | 6.4 | 0.00 | 0.00 | 0.00 | 95 | 1018.1 |
| 20260905124549 | 10 | 266 | 3.2 | 6.4 | 0.00 | 0.00 | 0.00 | 94 | 1018.1 |
| 20260905124045 | 10 | 270 | 3.2 | 4.8 | 0.00 | 0.00 | 0.00 | 94 | 1017.9 |
| 20260905123540 | 10 | 341 | 3.2 | 3.2 | 0.00 | 0.00 | 0.00 | 93 | 1018.0 |
| 20260905123037 | 10 | 11 | 4.8 | 6.4 | 0.00 | 0.00 | 0.00 | 93 | 1017.8 |
| 20260905122536 | 10 | 185 | 3.2 | 8.0 | 0.00 | 0.00 | 0.00 | 93 | 1017.7 |
| 20260905122031 | 10 | 90 | 0.0 | 4.8 | 0.00 | 0.00 | 0.00 | 94 | 1017.7 |
| 20260905121526 | 10 | 204 | 3.2 | 3.2 | 0.00 | 0.00 | 0.00 | 94 | 1018.0 |
| 20260905121021 | 10 | 255 | 1.6 | 4.8 | 0.00 | 0.00 | 0.00 | 94 | 1018.3 |
| 20260905120515 | 10 | 75 | 0.0 | 1.6 | 0.00 | 0.00 | 0.00 | 93 | 1018.2 |
| 20260905120010 | 10 | 54 | 1.6 | 4.8 | 0.00 | 0.00 | 0.00 | 93 | 1018.0 |
| 20260905115509 | 10 | 60 | 3.2 | 4.8 | 0.00 | 0.00 | 0.00 | 93 | 1017.8 |
| 20260905115004 | 10 | 106 | 1.6 | 9.7 | 0.00 | 0.00 | 0.00 | 94 | 1017.8 |
| 20260905114504 | 10 | 106 | 8.0 | 9.7 | 0.00 | 0.00 | 0.00 | 95 | 1017.6 |
| 20260905114003 | 10 | 28 | 3.2 | 4.8 | 0.00 | 0.00 | 0.00 | 95 | 1017.9 |
| 20260905113458 | 10 | 83 | 0.0 | 3.2 | 0.00 | 0.00 | 0.00 | 95 | 1018.1 |
| 20260905112953 | 10 | 103 | 3.2 | 3.2 | 0.00 | 0.00 | 0.00 | 95 | 1018.2 |
| 20260905112448 | 10 | 26 | 0.0 | 4.8 | 0.00 | 0.00 | 0.00 | 95 | 1017.9 |
| 20260905111943 | 10 | 106 | 0.0 | 3.2 | 0.00 | 0.00 | 0.00 | 95 | 1017.6 |
| 20260905111438 | 10 | 292 | 3.2 | 3.2 | 0.00 | 0.00 | 0.00 | 95 | 1017.7 |
| 20260905110937 | 10 | 29 | 3.2 | 4.8 | 0.00 | 0.00 | 0.00 | 95 | 1017.4 |
| 20260905110431 | 10 | 38 | 3.2 | 4.8 | 0.00 | 0.00 | 0.00 | 95 | 1017.8 |
| 20260905105931 | 10 | 96 | 1.6 | 3.2 | 0.00 | 0.00 | 0.00 | 94 | 1018.3 |
| 20260905105426 | 10 | 84 | 3.2 | 4.8 | 0.00 | 0.00 | 0.00 | 94 | 1017.8 |
| 20260905104925 | 10 | 109 | 0.0 | 4.8 | 0.00 | 0.00 | 0.00 | 94 | 1018.2 |
| 20260905104421 | 10 | 227 | 4.8 | 9.7 | 0.00 | 0.00 | 0.00 | 94 | 1017.9 |
| 20260905103916 | 10 | 264 | 4.8 | 12.9 | 0.00 | 0.00 | 0.00 | 95 | 1017.4 |
| 20260905103412 | 10 | 209 | 6.4 | 8.0 | 0.00 | 0.00 | 0.00 | 95 | 1017.0 |
| 20260905102907 | 10 | 25 | 6.4 | 14.5 | 0.00 | 0.00 | 0.00 | 95 | 1016.7 |
| 20260905102404 | 10 | 67 | 3.2 | 8.0 | 0.00 | 0.00 | 0.00 | 95 | 1017.4 |
| 20260905101858 | 10 | 109 | 0.0 | 1.6 | 0.00 | 0.00 | 0.00 | 95 | 1017.7 |
| 20260905101356 | 10 | 61 | 3.2 | 4.8 | 0.00 | 0.00 | 0.00 | 95 | 1018.2 |
| 20260905100851 | 10 | 98 | 3.2 | 6.4 | 0.00 | 0.00 | 0.00 | 95 | 1018.0 |
| 20260905100347 | 10 | 270 | 3.2 | 9.7 | 0.00 | 0.00 | 0.00 | 95 | 1018.3 |
| 20260905095846 | 10 | 285 | 8.0 | 9.7 | 0.00 | 0.00 | 0.00 | 95 | 1018.5 |
| 20260905095341 | 10 | 226 | 6.4 | 6.4 | 0.00 | 0.00 | 0.00 | 95 | 1018.1 |
| 20260905094836 | 10 | 105 | 8.0 | 9.7 | 0.00 | 0.00 | 0.00 | 95 | 1017.2 |
| 20260905094331 | 10 | 59 | 4.8 | 6.4 | 0.00 | 0.00 | 0.00 | 95 | 1017.4 |
| 20260905093830 | 10 | 57 | 3.2 | 4.8 | 0.00 | 0.00 | 0.00 | 95 | 1018.0 |
| 20260905093326 | 10 | 257 | 3.2 | 4.8 | 0.00 | 0.00 | 0.00 | 95 | 1017.9 |
| 20260905092822 | 10 | 197 | 3.2 | 4.8 | 0.00 | 0.00 | 0.00 | 95 | 1018.1 |
| 20260905092321 | 10 | 192 | 4.8 | 8.0 | 0.00 | 0.00 | 0.00 | 95 | 1018.0 |
| 20260905091817 | 10 | 68 | 4.8 | 4.8 | 0.00 | 0.00 | 0.00 | 95 | 1017.2 |
| 20260905091316 | 10 | 185 | 0.0 | 3.2 | 0.00 | 0.00 | 0.00 | 94 | 1017.5 |
| 20260905090814 | 10 | 68 | 3.2 | 4.8 | 0.00 | 0.00 | 0.00 | 94 | 1017.4 |
| 20260905090311 | 10 | 265 | 3.2 | 6.4 | 0.00 | 0.00 | 0.00 | 95 | 1018.0 |
| 20260905085805 | 10 | 99 | 3.2 | 4.8 | 0.00 | 0.00 | 0.00 | 94 | 1017.4 |
| 20260905085306 | 10 | 114 | 1.6 | 9.7 | 0.00 | 0.00 | 0.00 | 94 | 1017.2 |
| 20260905084800 | 10 | 68 | 4.8 | 4.8 | 0.00 | 0.00 | 0.00 | 94 | 1017.7 |
| 20260905084259 | 10 | 173 | 0.0 | 3.2 | 0.00 | 0.00 | 0.00 | 94 | 1018.6 |
| 20260905083755 | 10 | 124 | 0.0 | 3.2 | 0.00 | 0.00 | 0.00 | 94 | 1017.9 |
| 20260905083250 | 10 | 257 | 0.0 | 4.8 | 0.00 | 0.00 | 0.00 | 94 | 1017.9 |
| 20260905082745 | 10 | 108 | 8.0 | 8.0 | 0.00 | 0.00 | 0.00 | 94 | 1017.8 |
| 20260905082242 | 10 | 165 | 0.0 | 3.2 | 0.00 | 0.00 | 0.00 | 94 | 1018.0 |
| 20260905081736 | 10 | 75 | 3.2 | 4.8 | 0.00 | 0.00 | 0.00 | 94 | 1017.7 |
| 20260905081231 | 10 | 90 | 0.0 | 8.0 | 0.00 | 0.00 | 0.00 | 94 | 1018.0 |
| 20260905080731 | 10 | 170 | 3.2 | 4.8 | 0.00 | 0.00 | 0.00 | 94 | 1018.1 |
| 20260905080231 | 10 | 248 | 4.8 | 4.8 | 0.00 | 0.00 | 0.00 | 93 | 1017.7 |
| 20260905075730 | 10 | 31 | 4.8 | 4.8 | 0.00 | 0.00 | 0.00 | 92 | 1017.6 |
| 20260905075229 | 10 | 100 | 3.2 | 8.0 | 0.00 | 0.00 | 0.00 | 92 | 1018.2 |
| 20260905074728 | 10 | 105 | 8.0 | 11.3 | 0.00 | 0.00 | 0.00 | 92 | 1017.9 |
| 20260905074224 | 10 | 120 | 4.8 | 11.3 | 0.00 | 0.00 | 0.00 | 93 | 1017.7 |
| 20260905073719 | 10 | 90 | 1.6 | 3.2 | 0.00 | 0.00 | 0.00 | 93 | 1017.6 |
| 20260905073215 | 10 | 129 | 4.8 | 9.7 | 0.00 | 0.00 | 0.00 | 94 | 1017.7 |
| 20260905072714 | 10 | 126 | 0.0 | 4.8 | 0.00 | 0.00 | 0.00 | 94 | 1017.4 |
| 20260905072210 | 10 | 123 | 0.0 | 1.6 | 0.00 | 0.00 | 0.00 | 93 | 1017.7 |
| 20260905071706 | 10 | 98 | 0.0 | 1.6 | 0.00 | 0.00 | 0.00 | 93 | 1017.8 |
| 20260905071202 | 10 | 103 | 4.8 | 6.4 | 0.00 | 0.00 | 0.00 | 93 | 1017.6 |
| 20260905070656 | 10 | 110 | 6.4 | 9.7 | 0.00 | 0.00 | 0.00 | 93 | 1017.5 |
| 20260905070153 | 10 | 98 | 4.8 | 6.4 | 0.00 | 0.00 | 0.00 | 93 | 1017.7 |
| 20260905065651 | 10 | 99 | 4.8 | 4.8 | 0.00 | 0.00 | 0.00 | 93 | 1017.8 |
| 20260905065145 | 10 | 114 | 0.0 | 3.2 | 0.00 | 0.00 | 0.00 | 93 | 1017.5 |
| 20260905064641 | 10 | 103 | 3.2 | 8.0 | 0.00 | 0.00 | 0.00 | 94 | 1017.9 |
| 20260905064137 | 10 | 85 | 3.2 | 4.8 | 0.00 | 0.00 | 0.00 | 94 | 1017.9 |
| 20260905063635 | 10 | 106 | 1.6 | 3.2 | 0.00 | 0.00 | 0.00 | 93 | 1017.9 |
| 20260905063132 | 10 | 135 | 0.0 | 3.2 | 0.00 | 0.00 | 0.00 | 93 | 1017.8 |
| 20260905062627 | 10 | 176 | 0.0 | 4.8 | 0.00 | 0.00 | 0.00 | 92 | 1017.8 |